Terug naar catalogus

EUTE 1-F4

ECS 4

ActiefCommunicatieGEO
NORAD 18351·PAYLOAD·🇪🇺 EU

Gelanceerd Sep 16, 1987 vanaf Guiana Space Centre

Loading…

TLE

VersSource: Space-Track

Epoch: Sep 14, 2026, 10:43 UTC

1 18351U 87078B   26257.44720279 -.00000262  00000-0  00000-0 0  9996
2 18351  13.7666 341.4935 0008072  41.0869 294.2302  0.98691545127631

Volg EUTE 1-F4 in realtime met AllMySat

Download on the App Store